Weather History for Bad Axe, MI

Change the Weather History Date:

Tuesday, October 16, 2012

  Actual Average (KP58) Record (KP58)
Temperature  
Mean Temperature 42 °F -  
Max Temperature 55 °F 57 °F 71 °F (1999)
Min Temperature 30 °F 42 °F 35 °F (2012)
Degree Days  
Heating Degree Days 22    
Moisture  
Dew Point 36 °F    
Average Humidity 74    
Maximum Humidity 96    
Minimum Humidity 51    
Precipitation  
Precipitation 0.00 in - - ()
Sea Level Pressure  
Sea Level Pressure 29.88 in    
Wind  
Wind Speed 5 mph (SSW)    
Max Wind Speed 12 mph    
Max Gust Speed -    
Visibility 10 miles    
Events Rain    
Averages and records for this station are not official NWS values.
T = Trace of Precipitation, MM = Missing Value Source: NWS Daily Summary

Daily Weather History Graph

Daily Weather History Graph

Search for Another Location

Airport:

Trip Planner

Search our weather history database for the weather conditions in past years. The results will help you decide how hot, cold, wet, or windy it might be!

Date:

Astronomy

Oct. 16, 2012 Rise Set
Actual Time 7:48 AM EDT 6:45 PM EDT
Civil Twilight 7:19 AM EDT 7:14 PM EDT
Nautical Twilight 6:45 AM EDT 7:48 PM EDT
Astronomical Twilight 6:12 AM EDT 8:21 PM EDT
Moon 9:13 AM EDT (10/16) 7:24 PM EDT (10/16)
Length of Visible Light 11h 55m
Length of Day
10h 57m
New Moon, 2% of the Moon is Illuminated
Oct 16
New Moon
Oct 21
First Quarter
Oct 29
Full
Nov 6
Last Quarter
Nov 13
New

Hourly Weather History & Observations

Time (EDT) Temp. Windchill Dew Point Humidity Pressure Visibility Wind Dir Wind Speed Gust Speed Precip Events Conditions
12:13 AM 42.8 °F 38.0 °F 34.2 °F 72% 29.91 in 10.0 mi NW 8.1 mph - N/A   Overcast
12:34 AM 42.8 °F 38.6 °F 33.8 °F 70% 29.92 in 10.0 mi NW 6.9 mph - N/A   Overcast
12:53 AM 42.8 °F 38.6 °F 34.2 °F 72% 29.92 in 10.0 mi WNW 6.9 mph - N/A   Overcast
1:13 AM 42.4 °F 37.5 °F 33.8 °F 71% 29.92 in 10.0 mi WNW 8.1 mph - N/A   Overcast
1:34 AM 42.1 °F 37.7 °F 33.4 °F 71% 29.93 in 10.0 mi NW 6.9 mph - N/A   Overcast
1:53 AM 41.4 °F 37.6 °F 32.9 °F 72% 29.93 in 10.0 mi NW 5.8 mph - N/A   Overcast
2:13 AM 41.0 °F 38.0 °F 32.7 °F 72% 29.93 in 10.0 mi WNW 4.6 mph - N/A   Mostly Cloudy
2:34 AM 38.8 °F 35.4 °F 32.5 °F 78% 29.93 in 10.0 mi West 4.6 mph - N/A   Scattered Clouds
2:53 AM 37.8 °F 34.2 °F 32.9 °F 83% 29.94 in 10.0 mi West 4.6 mph - N/A   Clear
3:14 AM 36.7 °F 32.0 °F 32.7 °F 86% 29.95 in 10.0 mi WNW 5.8 mph - N/A   Clear
3:34 AM 36.5 °F 31.8 °F 32.5 °F 86% 29.94 in 10.0 mi WNW 5.8 mph - N/A   Clear
3:53 AM 35.8 °F 31.9 °F 32.0 °F 86% 29.94 in 10.0 mi WNW 4.6 mph - N/A   Clear
4:14 AM 34.7 °F 31.8 °F 31.6 °F 89% 29.93 in 10.0 mi West 3.5 mph - N/A   Clear
4:33 AM 34.9 °F - 32.0 °F 89% 29.93 in 10.0 mi Calm Calm - N/A   Clear
4:54 AM 34.2 °F - 31.3 °F 89% 29.93 in 10.0 mi Calm Calm - N/A   Clear
5:14 AM 34.0 °F - 31.6 °F 91% 29.94 in 10.0 mi Calm Calm - N/A   Clear
5:33 AM 34.3 °F - 32.0 °F 91% 29.93 in 10.0 mi Calm Calm - N/A   Clear
5:54 AM 31.8 °F 28.5 °F 29.3 °F 90% 29.94 in 10.0 mi West 3.5 mph - N/A   Clear
6:14 AM 33.1 °F 30.0 °F 31.5 °F 94% 29.95 in 10.0 mi West 3.5 mph - N/A   Clear
6:33 AM 32.9 °F - 31.1 °F 93% 29.95 in 10.0 mi Calm Calm - N/A   Clear
6:54 AM 33.6 °F - 31.3 °F 91% 29.95 in 10.0 mi Calm Calm - N/A   Clear
7:14 AM 33.4 °F - 31.3 °F 92% 29.95 in 10.0 mi Calm Calm - N/A   Clear
7:33 AM 30.2 °F - 28.2 °F 92% 29.95 in 10.0 mi Calm Calm - N/A   Clear
8:14 AM 30.2 °F - 28.8 °F 94% 29.96 in 10.0 mi Calm Calm - N/A   Clear
8:33 AM 32.0 °F - 30.9 °F 96% 29.96 in 10.0 mi Calm Calm - N/A   Clear
8:54 AM 33.8 °F - 32.4 °F 94% 29.96 in 10.0 mi Calm Calm - N/A   Clear
9:13 AM 36.9 °F - 35.4 °F 95% 29.96 in 10.0 mi Calm Calm - N/A   Clear
9:33 AM 39.7 °F - 37.6 °F 92% 29.96 in 10.0 mi Calm Calm - N/A   Clear
9:54 AM 42.1 °F 39.2 °F 37.4 °F 83% 29.97 in 10.0 mi SSW 4.6 mph - N/A   Clear
10:13 AM 43.2 °F 41.5 °F 35.8 °F 75% 29.96 in 10.0 mi SSW 3.5 mph - N/A   Clear
10:34 AM 44.8 °F 41.6 °F 36.5 °F 73% 29.96 in 10.0 mi SSW 5.8 mph - N/A   Clear
10:54 AM 45.3 °F 42.3 °F 35.8 °F 69% 29.96 in 10.0 mi SW 5.8 mph - N/A   Clear
11:13 AM 46.4 °F 42.4 °F 36.5 °F 68% 29.95 in 10.0 mi West 8.1 mph - N/A   Clear
11:34 AM 47.5 °F - 37.4 °F 68% 29.95 in 10.0 mi West 4.6 mph - N/A   Clear
11:54 AM 48.7 °F - 38.1 °F 67% 29.95 in 10.0 mi WSW 8.1 mph - N/A   Scattered Clouds
12:13 PM 48.9 °F - 37.6 °F 65% 29.93 in 10.0 mi SSW 9.2 mph - N/A   Scattered Clouds
12:34 PM 48.2 °F - 37.4 °F 66% 29.93 in 10.0 mi WSW 8.1 mph - N/A   Scattered Clouds
12:54 PM 49.6 °F - 37.2 °F 62% 29.92 in 10.0 mi SSW 6.9 mph - N/A   Clear
1:13 PM 50.2 °F - 37.2 °F 61% 29.91 in 10.0 mi SW 5.8 mph - N/A   Clear
1:34 PM 50.5 °F - 37.6 °F 61% 29.89 in 10.0 mi SSW 4.6 mph - N/A   Clear
1:54 PM 50.5 °F - 37.8 °F 62% 29.88 in 10.0 mi South 5.8 mph - N/A   Clear
2:13 PM 51.8 °F - 37.8 °F 59% 29.87 in 10.0 mi South 6.9 mph - N/A   Clear
2:34 PM 51.6 °F - 37.9 °F 60% 29.86 in 10.0 mi SSW 8.1 mph - N/A   Scattered Clouds
2:54 PM 53.8 °F - 38.3 °F 56% 29.85 in 10.0 mi South 4.6 mph - N/A   Clear
3:13 PM 53.1 °F - 37.6 °F 56% 29.84 in 10.0 mi South 8.1 mph - N/A   Clear
3:34 PM 54.3 °F - 37.8 °F 54% 29.84 in 10.0 mi South 6.9 mph - N/A   Clear
3:54 PM 54.5 °F - 37.0 °F 52% 29.84 in 10.0 mi South 9.2 mph - N/A   Clear
4:13 PM 54.5 °F - 36.7 °F 51% 29.83 in 10.0 mi SSW 10.4 mph - N/A   Clear
4:34 PM 54.9 °F - 37.6 °F 52% 29.82 in 10.0 mi South 11.5 mph - N/A   Clear
4:54 PM 55.0 °F - 37.6 °F 52% 29.82 in 10.0 mi South 8.1 mph - N/A   Clear
5:14 PM 54.9 °F - 38.7 °F 54% 29.81 in 10.0 mi South 9.2 mph - N/A   Clear
5:34 PM 54.7 °F - 37.4 °F 52% 29.81 in 10.0 mi South 9.2 mph - N/A   Clear
5:54 PM 53.8 °F - 39.0 °F 57% 29.80 in 10.0 mi South 5.8 mph - N/A   Clear
6:14 PM 52.7 °F - 39.6 °F 61% 29.80 in 10.0 mi South 5.8 mph - N/A   Clear
6:34 PM 51.1 °F - 38.1 °F 61% 29.78 in 10.0 mi SSE 5.8 mph - N/A   Clear
6:53 PM 51.1 °F - 37.0 °F 59% 29.77 in 10.0 mi SE 4.6 mph - N/A   Clear
7:14 PM 50.0 °F - 36.9 °F 61% 29.77 in 10.0 mi SSE 4.6 mph - N/A   Clear
7:34 PM 47.8 °F - 39.2 °F 72% 29.77 in 10.0 mi ESE 3.5 mph - N/A   Clear
7:53 PM 47.3 °F - 39.6 °F 74% 29.77 in 10.0 mi SSE 3.5 mph - N/A   Clear
8:14 PM 47.8 °F - 38.5 °F 70% 29.76 in 10.0 mi SSE 6.9 mph - N/A   Clear
8:34 PM 47.5 °F - 38.8 °F 72% 29.76 in 10.0 mi SSE 5.8 mph - N/A   Clear
8:53 PM 47.1 °F - 39.2 °F 74% 29.76 in 10.0 mi South 6.9 mph - N/A   Clear
9:14 PM 45.7 °F 42.0 °F 39.2 °F 78% 29.77 in 10.0 mi South 6.9 mph - N/A   Clear
9:34 PM 45.0 °F 41.8 °F 39.2 °F 80% 29.77 in 10.0 mi SSE 5.8 mph - N/A   Clear
9:54 PM 44.2 °F 40.3 °F 38.5 °F 80% 29.78 in 10.0 mi SSE 6.9 mph - N/A   Clear
10:14 PM 44.4 °F 41.2 °F 38.8 °F 81% 29.77 in 10.0 mi SE 5.8 mph - N/A   Clear
10:34 PM 45.0 °F 40.6 °F 39.4 °F 81% 29.77 in 10.0 mi SSE 8.1 mph - N/A   Clear
10:54 PM 45.9 °F 41.7 °F 40.3 °F 81% 29.76 in 10.0 mi SSE 8.1 mph - N/A   Scattered Clouds
11:34 PM 47.5 °F - 41.2 °F 79% 29.76 in 10.0 mi SSE 9.2 mph - N/A   Overcast
11:53 PM 46.9 °F - 42.3 °F 84% 29.76 in 10.0 mi South 9.2 mph - N/A Rain Light Rain